AFL1191 UWKD-UUEE

Flight info

Callsign AFL1191
Flight time 1h 13m
Altitude 36000
Route APTAR1H APTAR L158 DIMGI DIMGI3W
Aircraft B738/M-SDE2E3FGHIRWXY/LB1

Departure

Time 2026-05-05 18:20
Airport Kazan International Airport (UWKD)

Arrival

Time 2026-05-05 19:34
Airport Sheremetyevo International Airport (UUEE)
Time Latitude Longitude Altitude Speed Heading
2026-05-05 17:45 55.60694 49.30018 415 ft 0 kts 34°
2026-05-05 18:13 55.60689 49.30012 415 ft 2 kts 34°
2026-05-05 18:13 55.60675 49.29996 408 ft 2 kts 34°
2026-05-05 18:13 55.60662 49.29979 415 ft 2 kts 34°
2026-05-05 18:13 55.60649 49.29962 409 ft 2 kts 51°
2026-05-05 18:14 55.60642 49.29937 406 ft 2 kts 89°
2026-05-05 18:14 55.60645 49.29914 410 ft 0 kts 123°
2026-05-05 18:16 55.60630 49.29952 411 ft 10 kts 124°
2026-05-05 18:17 55.60579 49.30075 408 ft 13 kts 137°
2026-05-05 18:17 55.60499 49.30053 415 ft 13 kts 215°
2026-05-05 18:17 55.60424 49.29963 415 ft 13 kts 214°
2026-05-05 18:17 55.60344 49.29888 412 ft 14 kts 194°
2026-05-05 18:18 55.60247 49.29897 415 ft 14 kts 160°
2026-05-05 18:18 55.60161 49.29970 412 ft 13 kts 154°
2026-05-05 18:18 55.60079 49.30040 412 ft 13 kts 155°
2026-05-05 18:18 55.59994 49.30110 416 ft 14 kts 157°
2026-05-05 18:19 55.59903 49.30102 415 ft 13 kts 208°
2026-05-05 18:19 55.59852 49.30040 416 ft 13 kts 218°
2026-05-05 18:19 55.59839 49.29903 417 ft 13 kts 298°
2026-05-05 18:19 55.59903 49.29734 413 ft 24 kts 304°
2026-05-05 18:20 55.60110 49.29195 414 ft 92 kts 304°
2026-05-05 18:20 55.60606 49.27912 414 ft 158 kts 304°
2026-05-05 18:20 55.61275 49.26218 1053 ft 167 kts 303°
2026-05-05 18:20 55.61890 49.24405 1793 ft 171 kts 281°
2026-05-05 18:21 55.61795 49.22404 2609 ft 172 kts 249°
2026-05-05 18:21 55.61300 49.20298 2839 ft 198 kts 248°
2026-05-05 18:21 55.60736 49.17924 3012 ft 220 kts 247°
2026-05-05 18:21 55.60107 49.15297 3177 ft 244 kts 247°
2026-05-05 18:22 55.59430 49.12471 3745 ft 253 kts 247°
2026-05-05 18:22 55.58738 49.09588 4468 ft 256 kts 248°
2026-05-05 18:22 55.58039 49.06681 5200 ft 258 kts 247°
2026-05-05 18:22 55.57335 49.03747 5943 ft 261 kts 248°
2026-05-05 18:23 55.56622 49.00779 6680 ft 264 kts 248°
2026-05-05 18:23 55.55900 48.97776 7401 ft 267 kts 248°
2026-05-05 18:23 55.55168 48.94735 7862 ft 270 kts 248°
2026-05-05 18:23 55.54436 48.91700 7975 ft 274 kts 248°
2026-05-05 18:24 55.53693 48.88617 7979 ft 271 kts 248°
2026-05-05 18:24 55.52955 48.85563 7990 ft 271 kts 248°
2026-05-05 18:24 55.52214 48.82499 7993 ft 271 kts 248°
2026-05-05 18:24 55.51471 48.79435 7994 ft 272 kts 248°
2026-05-05 18:25 55.50727 48.76364 7993 ft 272 kts 248°
2026-05-05 18:25 55.50223 48.74289 7999 ft 272 kts 248°
2026-05-05 18:25 55.49234 48.70220 7988 ft 273 kts 248°
2026-05-05 18:25 55.48485 48.67141 7992 ft 273 kts 248°
2026-05-05 18:26 55.47736 48.64068 7996 ft 273 kts 248°
2026-05-05 18:26 55.46987 48.61001 8006 ft 272 kts 248°
2026-05-05 18:26 55.46235 48.57929 8005 ft 272 kts 248°
2026-05-05 18:26 55.45555 48.54826 7987 ft 272 kts 259°
2026-05-05 18:27 55.45569 48.51515 8091 ft 273 kts 280°
2026-05-05 18:27 55.46039 48.48248 8762 ft 276 kts 286°
2026-05-05 18:27 55.46604 48.45033 9648 ft 276 kts 287°
2026-05-05 18:27 55.47195 48.41779 10294 ft 285 kts 288°
2026-05-05 18:28 55.48494 48.34563 10705 ft 330 kts 287°
2026-05-05 18:28 55.49186 48.30653 11249 ft 338 kts 287°
2026-05-05 18:28 55.49882 48.26681 12021 ft 340 kts 287°
2026-05-05 18:29 55.50580 48.22667 12818 ft 343 kts 287°
2026-05-05 18:29 55.51278 48.18625 13586 ft 347 kts 286°
2026-05-05 18:29 55.51984 48.14521 14283 ft 351 kts 286°
2026-05-05 18:29 55.52692 48.10390 15020 ft 354 kts 286°
2026-05-05 18:30 55.53404 48.06223 15768 ft 357 kts 286°
2026-05-05 18:30 55.54123 48.02003 16497 ft 360 kts 286°
2026-05-05 18:30 55.54845 47.97755 17194 ft 364 kts 286°
2026-05-05 18:30 55.55575 47.93447 17915 ft 367 kts 286°
2026-05-05 18:31 55.56309 47.89108 18551 ft 371 kts 286°
2026-05-05 18:31 55.57048 47.84730 19165 ft 374 kts 286°
2026-05-05 18:31 55.57792 47.80304 19786 ft 376 kts 286°
2026-05-05 18:31 55.58531 47.75904 20401 ft 379 kts 286°
2026-05-05 18:32 55.59281 47.71426 20994 ft 382 kts 286°
2026-05-05 18:32 55.60037 47.66899 21609 ft 384 kts 286°
2026-05-05 18:32 55.60797 47.62339 22190 ft 387 kts 286°
2026-05-05 18:32 55.61558 47.57756 22755 ft 390 kts 286°
2026-05-05 18:33 55.62326 47.53120 23307 ft 393 kts 285°
2026-05-05 18:33 55.63098 47.48446 23796 ft 396 kts 285°
2026-05-05 18:33 55.63871 47.43755 24241 ft 399 kts 285°
2026-05-05 18:33 55.64650 47.39019 24706 ft 401 kts 285°
2026-05-05 18:34 55.65428 47.34270 25150 ft 403 kts 285°
2026-05-05 18:34 55.66210 47.29489 25578 ft 406 kts 285°
2026-05-05 18:34 55.66998 47.24661 26004 ft 408 kts 285°
2026-05-05 18:34 55.67785 47.19819 26405 ft 411 kts 285°
2026-05-05 18:35 55.68578 47.14929 26832 ft 413 kts 285°
2026-05-05 18:35 55.69371 47.10026 27242 ft 416 kts 285°
2026-05-05 18:35 55.70170 47.05082 27669 ft 417 kts 285°
2026-05-05 18:35 55.70967 47.00135 28071 ft 419 kts 285°
2026-05-05 18:36 55.71768 46.95145 28447 ft 421 kts 285°
2026-05-05 18:36 55.72572 46.90127 28815 ft 423 kts 285°
2026-05-05 18:36 55.73376 46.85098 29176 ft 425 kts 284°
2026-05-05 18:36 55.74181 46.80044 29534 ft 427 kts 284°
2026-05-05 18:37 55.74987 46.74966 29995 ft 426 kts 284°
2026-05-05 18:37 55.75784 46.69933 30471 ft 423 kts 284°
2026-05-05 18:37 55.76569 46.64964 30796 ft 424 kts 284°
2026-05-05 18:37 55.77377 46.59832 31069 ft 426 kts 284°
2026-05-05 18:38 55.78160 46.54843 31453 ft 425 kts 284°
2026-05-05 18:38 55.78949 46.49793 31936 ft 421 kts 283°
2026-05-05 18:38 55.79530 46.44747 32524 ft 414 kts 275°
2026-05-05 18:38 55.79727 46.39654 32984 ft 412 kts 272°
2026-05-05 18:39 55.79875 46.34557 33267 ft 413 kts 272°
2026-05-05 18:39 55.80019 46.29441 33564 ft 414 kts 272°
2026-05-05 18:39 55.80165 46.24349 33951 ft 412 kts 272°
2026-05-05 18:39 55.80316 46.19262 34276 ft 411 kts 272°
2026-05-05 18:40 55.80470 46.14191 34519 ft 412 kts 272°
2026-05-05 18:40 55.80626 46.09106 34754 ft 413 kts 272°
2026-05-05 18:40 55.80782 46.03998 35032 ft 413 kts 272°
2026-05-05 18:40 55.80936 45.98913 35322 ft 412 kts 272°
2026-05-05 18:41 55.81090 45.93811 35568 ft 413 kts 272°
2026-05-05 18:41 55.81240 45.88719 35806 ft 413 kts 272°
2026-05-05 18:41 55.81537 45.78477 35847 ft 419 kts 272°
2026-05-05 18:42 55.81826 45.68194 35841 ft 412 kts 272°
2026-05-05 18:42 55.82102 45.58092 35846 ft 408 kts 272°
2026-05-05 18:43 55.82369 45.47991 35847 ft 409 kts 272°
2026-05-05 18:43 55.82628 45.37870 35847 ft 410 kts 271°
2026-05-05 18:44 55.82879 45.27726 35845 ft 411 kts 271°
2026-05-05 18:44 55.83123 45.17560 35845 ft 411 kts 271°
2026-05-05 18:45 55.83360 45.07380 35845 ft 412 kts 271°
2026-05-05 18:45 55.83587 44.97237 35842 ft 412 kts 271°
2026-05-05 18:46 55.83808 44.87051 35840 ft 412 kts 271°
2026-05-05 18:46 55.84024 44.76835 35841 ft 412 kts 271°
2026-05-05 18:47 55.84232 44.66638 35839 ft 412 kts 271°
2026-05-05 18:47 55.84431 44.56430 35838 ft 412 kts 271°
2026-05-05 18:48 55.84620 44.46317 35837 ft 411 kts 271°
2026-05-05 18:48 55.84802 44.36143 35840 ft 411 kts 271°
2026-05-05 18:49 55.84976 44.25988 35836 ft 411 kts 271°
2026-05-05 18:49 55.85141 44.15809 35840 ft 411 kts 270°
2026-05-05 18:50 55.85298 44.05655 35830 ft 410 kts 270°
2026-05-05 18:50 55.85445 43.95582 35837 ft 409 kts 270°
2026-05-05 18:51 55.85584 43.85449 35836 ft 409 kts 270°
2026-05-05 18:51 55.85716 43.75322 35839 ft 409 kts 270°
2026-05-05 18:52 55.85839 43.65195 35834 ft 409 kts 270°
2026-05-05 18:52 55.85955 43.55069 35839 ft 409 kts 270°
2026-05-05 18:53 55.86064 43.44943 35848 ft 409 kts 270°
2026-05-05 18:53 55.86172 43.34811 35838 ft 409 kts 270°
2026-05-05 18:54 55.86273 43.24677 35835 ft 409 kts 270°
2026-05-05 18:54 55.86366 43.14547 35843 ft 409 kts 270°
2026-05-05 18:55 55.86449 43.04463 35840 ft 409 kts 270°
2026-05-05 18:55 55.86525 42.94324 35841 ft 410 kts 270°
2026-05-05 18:56 55.86592 42.84178 35843 ft 410 kts 270°
2026-05-05 18:56 55.86651 42.74028 35843 ft 410 kts 270°
2026-05-05 18:57 55.86702 42.63872 35843 ft 410 kts 270°
2026-05-05 18:57 55.86744 42.53732 35841 ft 410 kts 270°
2026-05-05 18:58 55.86778 42.43570 35829 ft 410 kts 270°
2026-05-05 18:58 55.86804 42.33476 35842 ft 410 kts 269°
2026-05-05 18:59 55.86822 42.23294 35841 ft 410 kts 269°
2026-05-05 18:59 55.86831 42.13124 35842 ft 411 kts 269°
2026-05-05 19:00 55.86831 42.02944 35843 ft 411 kts 269°
2026-05-05 19:00 55.86824 41.92837 35854 ft 411 kts 269°
2026-05-05 19:01 55.86810 41.82656 35844 ft 411 kts 269°
2026-05-05 19:01 55.86710 41.72479 35843 ft 411 kts 266°
2026-05-05 19:02 55.86379 41.62329 35834 ft 410 kts 266°
2026-05-05 19:02 55.86028 41.52191 35847 ft 410 kts 266°
2026-05-05 19:03 55.85694 41.42040 35847 ft 410 kts 266°
2026-05-05 19:03 55.85420 41.33615 35842 ft 410 kts 266°
2026-05-05 19:04 55.85087 41.23476 35844 ft 410 kts 266°
2026-05-05 19:04 55.84745 41.13339 35857 ft 411 kts 266°
2026-05-05 19:05 55.84394 41.03187 35843 ft 411 kts 266°
2026-05-05 19:05 55.84034 40.93020 35843 ft 410 kts 266°
2026-05-05 19:06 55.83667 40.82896 35827 ft 410 kts 266°
2026-05-05 19:06 55.83479 40.77794 35405 ft 415 kts 266°
2026-05-05 19:06 55.83290 40.72691 34852 ft 413 kts 265°
2026-05-05 19:07 55.83099 40.67602 34297 ft 412 kts 265°
2026-05-05 19:07 55.82907 40.62575 33650 ft 412 kts 265°
2026-05-05 19:07 55.82707 40.57497 33049 ft 410 kts 265°
2026-05-05 19:07 55.82504 40.52478 32592 ft 405 kts 265°
2026-05-05 19:08 55.82299 40.47508 32142 ft 400 kts 265°
2026-05-05 19:08 55.82096 40.42592 31674 ft 396 kts 265°
2026-05-05 19:08 55.81893 40.37726 31246 ft 392 kts 265°
2026-05-05 19:08 55.81690 40.32914 30804 ft 388 kts 266°
2026-05-05 19:09 55.81488 40.28152 30371 ft 385 kts 266°
2026-05-05 19:09 55.81287 40.23433 29939 ft 381 kts 266°
2026-05-05 19:09 55.81085 40.18753 29450 ft 378 kts 266°
2026-05-05 19:09 55.80884 40.14126 29014 ft 372 kts 266°
2026-05-05 19:10 55.80684 40.09567 28572 ft 368 kts 266°
2026-05-05 19:10 55.80485 40.05054 28116 ft 364 kts 266°
2026-05-05 19:10 55.80286 40.00591 27695 ft 360 kts 266°
2026-05-05 19:10 55.80088 39.96175 27262 ft 357 kts 266°
2026-05-05 19:11 55.79891 39.91797 26833 ft 354 kts 265°
2026-05-05 19:11 55.79693 39.87448 26393 ft 351 kts 265°
2026-05-05 19:11 55.79494 39.83135 25989 ft 349 kts 265°
2026-05-05 19:11 55.79280 39.78874 25711 ft 343 kts 264°
2026-05-05 19:12 55.79017 39.74695 25512 ft 340 kts 264°
2026-05-05 19:12 55.78730 39.70432 25328 ft 355 kts 263°
2026-05-05 19:12 55.78431 39.66013 25113 ft 364 kts 263°
2026-05-05 19:12 55.78128 39.61521 24885 ft 366 kts 263°
2026-05-05 19:13 55.77830 39.57051 24675 ft 363 kts 264°
2026-05-05 19:13 55.77534 39.52609 24453 ft 361 kts 264°
2026-05-05 19:13 55.77240 39.48200 24235 ft 358 kts 264°
2026-05-05 19:13 55.76947 39.43830 24003 ft 354 kts 264°
2026-05-05 19:14 55.76660 39.39509 23629 ft 351 kts 265°
2026-05-05 19:14 55.76680 39.35197 23133 ft 349 kts 276°
2026-05-05 19:14 55.77160 39.30974 22590 ft 349 kts 285°
2026-05-05 19:14 55.77888 39.26869 22098 ft 347 kts 286°
2026-05-05 19:15 55.78632 39.22800 21619 ft 345 kts 287°
2026-05-05 19:15 55.79368 39.18788 21070 ft 346 kts 287°
2026-05-05 19:15 55.80106 39.14731 20593 ft 344 kts 286°
2026-05-05 19:15 55.80834 39.10698 20174 ft 341 kts 286°
2026-05-05 19:16 55.81553 39.06684 19745 ft 339 kts 286°
2026-05-05 19:16 55.82264 39.02695 19312 ft 337 kts 286°
2026-05-05 19:16 55.82967 38.98730 18886 ft 336 kts 286°
2026-05-05 19:16 55.83665 38.94780 18483 ft 334 kts 285°
2026-05-05 19:17 55.84357 38.90858 18106 ft 331 kts 285°
2026-05-05 19:17 55.85043 38.86953 17674 ft 329 kts 285°
2026-05-05 19:17 55.85721 38.83088 17245 ft 326 kts 285°
2026-05-05 19:17 55.86392 38.79252 16834 ft 323 kts 285°
2026-05-05 19:18 55.87066 38.75389 16411 ft 321 kts 285°
2026-05-05 19:18 55.87717 38.71656 16013 ft 318 kts 285°
2026-05-05 19:18 55.88370 38.67899 15609 ft 316 kts 285°
2026-05-05 19:18 55.89016 38.64170 15216 ft 314 kts 285°
2026-05-05 19:19 55.89657 38.60468 14831 ft 312 kts 285°
2026-05-05 19:19 55.90293 38.56790 14451 ft 309 kts 285°
2026-05-05 19:19 55.90922 38.53140 14079 ft 307 kts 285°
2026-05-05 19:19 55.91547 38.49508 13710 ft 305 kts 285°
2026-05-05 19:20 55.92166 38.45903 13299 ft 303 kts 285°
2026-05-05 19:20 55.92781 38.42315 12904 ft 301 kts 285°
2026-05-05 19:20 55.93389 38.38762 12514 ft 299 kts 284°
2026-05-05 19:20 55.93991 38.35234 12138 ft 296 kts 284°
2026-05-05 19:21 55.94588 38.31731 11750 ft 294 kts 284°
2026-05-05 19:21 55.95180 38.28244 11351 ft 293 kts 284°
2026-05-05 19:21 55.95769 38.24774 10973 ft 291 kts 283°
2026-05-05 19:21 55.96352 38.21327 10591 ft 289 kts 283°
2026-05-05 19:22 55.97052 38.17969 10207 ft 292 kts 296°
2026-05-05 19:22 55.98408 38.15242 10041 ft 292 kts 314°
2026-05-05 19:22 55.99976 38.13026 9967 ft 282 kts 316°
2026-05-05 19:22 56.01515 38.10946 9881 ft 272 kts 316°
2026-05-05 19:23 56.02996 38.08952 9817 ft 262 kts 316°
2026-05-05 19:23 56.04426 38.07012 9681 ft 255 kts 316°
2026-05-05 19:23 56.05828 38.05093 9406 ft 253 kts 316°
2026-05-05 19:23 56.07224 38.03170 9095 ft 253 kts 316°
2026-05-05 19:24 56.08615 38.01247 8791 ft 253 kts 316°
2026-05-05 19:24 56.10004 37.99324 8509 ft 252 kts 316°
2026-05-05 19:24 56.11390 37.97401 8244 ft 252 kts 315°
2026-05-05 19:24 56.12752 37.95513 8165 ft 243 kts 315°
2026-05-05 19:25 56.14058 37.93704 8107 ft 230 kts 315°
2026-05-05 19:25 56.15286 37.92000 8020 ft 216 kts 314°
2026-05-05 19:25 56.16437 37.90401 7873 ft 204 kts 314°
2026-05-05 19:25 56.17551 37.88845 7537 ft 202 kts 314°
2026-05-05 19:26 56.18622 37.87223 7137 ft 198 kts 302°
2026-05-05 19:26 56.18998 37.85029 6725 ft 183 kts 260°
2026-05-05 19:26 56.18582 37.82901 6395 ft 181 kts 239°
2026-05-05 19:26 56.17699 37.81284 6019 ft 186 kts 216°
2026-05-05 19:27 56.16465 37.80498 5664 ft 191 kts 197°
2026-05-05 19:27 56.15161 37.80016 5295 ft 192 kts 198°
2026-05-05 19:27 56.13840 37.79519 4896 ft 194 kts 198°
2026-05-05 19:27 56.12515 37.79025 4530 ft 195 kts 198°
2026-05-05 19:28 56.11177 37.78527 4120 ft 197 kts 197°
2026-05-05 19:28 56.09839 37.78033 3811 ft 196 kts 197°
2026-05-05 19:28 56.08529 37.77438 3489 ft 193 kts 202°
2026-05-05 19:28 56.07252 37.76698 3153 ft 193 kts 202°
2026-05-05 19:29 56.05971 37.75951 3043 ft 195 kts 202°
2026-05-05 19:29 56.04693 37.75210 3004 ft 195 kts 202°
2026-05-05 19:29 56.03417 37.74478 2986 ft 188 kts 202°
2026-05-05 19:29 56.02257 37.73533 2975 ft 175 kts 226°
2026-05-05 19:30 56.01641 37.71736 3003 ft 171 kts 253°
2026-05-05 19:30 56.01328 37.69657 3013 ft 175 kts 256°
2026-05-05 19:30 56.01034 37.67527 3015 ft 177 kts 257°
2026-05-05 19:30 56.00728 37.65404 2937 ft 177 kts 256°
2026-05-05 19:31 56.00409 37.63263 2735 ft 178 kts 256°
2026-05-05 19:31 56.00096 37.61190 2499 ft 166 kts 255°
2026-05-05 19:31 55.99806 37.59271 2308 ft 152 kts 256°
2026-05-05 19:31 55.99533 37.57463 2107 ft 151 kts 255°
2026-05-05 19:32 55.99263 37.55670 1907 ft 148 kts 255°
2026-05-05 19:32 55.99003 37.53936 1711 ft 145 kts 255°
2026-05-05 19:32 55.98739 37.52181 1533 ft 145 kts 255°
2026-05-05 19:32 55.98475 37.50420 1340 ft 148 kts 255°
2026-05-05 19:33 55.98208 37.48641 1146 ft 149 kts 255°
2026-05-05 19:33 55.97945 37.46883 944 ft 149 kts 256°
2026-05-05 19:33 55.97680 37.45102 752 ft 147 kts 255°
2026-05-05 19:33 55.97425 37.43349 645 ft 136 kts 257°
2026-05-05 19:34 55.97211 37.41949 643 ft 56 kts 255°
2026-05-05 19:34 55.97157 37.41585 646 ft 7 kts 255°
2026-05-05 19:34 55.97144 37.41500 641 ft 8 kts 254°
2026-05-05 19:35 55.97166 37.41343 639 ft 7 kts 332°
2026-05-05 19:35 55.97215 37.41321 643 ft 7 kts 346°
2026-05-05 19:35 55.97280 37.41291 638 ft 11 kts 345°
2026-05-05 19:35 55.97355 37.41255 639 ft 11 kts 345°
2026-05-05 19:36 55.97430 37.41220 643 ft 11 kts 345°
2026-05-05 19:36 55.97502 37.41188 643 ft 11 kts 356°
2026-05-05 19:36 55.97548 37.41277 642 ft 12 kts 73°
2026-05-05 19:36 55.97571 37.41426 641 ft 13 kts 75°
2026-05-05 19:37 55.97597 37.41573 638 ft 12 kts 56°
2026-05-05 19:37 55.97675 37.41583 643 ft 12 kts 345°
2026-05-05 19:37 55.97755 37.41545 638 ft 12 kts 344°
2026-05-05 19:37 55.97824 37.41537 638 ft 10 kts 42°
2026-05-05 19:38 55.97837 37.41623 646 ft 4 kts 75°
2026-05-05 19:38 55.97839 37.41632 645 ft 0 kts 75°